Location: Ladrillo (historical)
(32.8195°N, 117.2231°W)
Time: 03:27:32
(UTC+00:00)

Nadezhda 4 Rocket - Pass Details

Date: 29 October 2020
Orbit: 950 x 991 km, 82.9° (Epoch: 26 November)

Event Time Altitude Azimuth Distance (km) Brightness Sun altitude
Rises 12:00:05 0° 190° (S) 3,608 6.9 -26.7°
Reaches altitude 10° 12:02:34 10° 193° (SSW) 2,665 6.2 -26.2°
Maximum altitude 12:08:38 70° 277° (W) 1,006 3.8 -24.9°
Drops below altitude 10° 12:14:45 10° 1° (N) 2,688 6.3 -23.6°
Sets 12:17:17 0° 4° (N) 3,641 7.0 -23.1°
